PANTPAKT

Guest
Details From PANT - Annette Island
To PAKT - Ketchikan Intl
Flight Number -
Tags Generated
Created
Modified
Stats Distance 20 nm / 37 km
Max Altitude 0 ft / 0 m
Waypoints 2
Social Downloads 4
Likes 0
Share VATSIM

Download

Looking for another format? Having issues loading an existing format? Contact us
Advertisement - Login to hide

Notes

Generated

Route

PANT PAKT

ID Type Via Altitude Latitude Longitude Leg Dist Tot Dist Heading (true) Name
O PANT APT - 0 ft / 0 m 55.03658˚ -131.58130˚ - 0 nm - -
O PAKT APT - 0 ft / 0 m 55.36288˚ -131.72634˚ 20 nm 20 nm 346° / 346° -

Altitude Profile

Advertisement - Login to hide

PANT

Details ICAO PANT (ANN)
Name ANNETTE ISLAND
Region USA (Alaska)
Timezone America/Juneau (UTC-8.0)
Stats Elevation 119 ft / 36 m (AMSL)
Location 55.039538° -131.572274°
Runways 2
Magnetic Variation 18.353° E

METAR

PANT 210253Z AUTO 15011G20KT 10SM OVC046 10/08 A2997 RMK SLP151 T01000078 56008 TSNO VIA AUTODIAL

Decode

TAF

Not found

Departure Runways

ID Width Length Bearing (true) Bearing (mag) Surface Threshold Offset Overrun Length
02 150 ft / 46 m 5,713 ft / 1,741 m 41.55° 23.20° Gravel 0 ft / 0 m 0 ft / 0 m
12 150 ft / 46 m 7,481 ft / 2,280 m 147.74° 129.39° Asphalt 0 ft / 0 m 0 ft / 0 m
20 150 ft / 46 m 5,713 ft / 1,741 m 221.57° 203.22° Gravel 0 ft / 0 m 0 ft / 0 m
30 150 ft / 46 m 7,481 ft / 2,280 m 327.75° 309.40° Asphalt 0 ft / 0 m 0 ft / 0 m

PAKT

Details ICAO PAKT (KTN)
Name KETCHIKAN INTL
Region USA (Alaska)
Timezone Unknown (UTC+0.0)
Stats Elevation 88 ft / 27 m (AMSL)
Location 55.355545° -131.713737°
Runways 1
Magnetic Variation 18.431° E

METAR

PAKT 210253Z 16009G19KT 10SM SCT025 BKN035 OVC044 11/08 A2997

Decode

TAF

PAKT 210319Z 2103/2124 15009G19KT P6SM VCSH SCT025 BKN035 OVC045 TEMPO 2103/2107 3SM -RA BR BKN010 OVC020 FM210900 14014G24KT 5SM -RA OVC015 FM211200 14016G26KT 6SM -RA SCT015 BKN030 OVC040 WS020/16040KT AMD LTD TO CLD VIS AND WIND 2106/2115

Decode

Destination Runways

ID Width Length Bearing (true) Bearing (mag) Surface Threshold Offset Overrun Length
11 150 ft / 46 m 7,485 ft / 2,281 m 135.66° 117.23° Asphalt 0 ft / 0 m 200 ft / 61 m
29 150 ft / 46 m 7,485 ft / 2,281 m 315.68° 297.25° Asphalt 0 ft / 0 m 100 ft / 30 m

Approach Navaids

Runway Type Ident Frequency Range Bearing (true) Bearing (mag) Slope Elevation
11 Localiser IECH 109.30 MHz 18 nm / 33 km 135.69° 117.26° - 66 ft / 20 m (AMSL)
11 Glidescope IECH 109.30 MHz 10 nm / 19 km 135.67° 117.24° 3.61° 76 ft / 23 m (AMSL)
11 DME IECH 109.30 MHz 18 nm / 33 km - - - 98 ft / 30 m (AMSL)